Location: Bernadets
(43.3537°N, 0.3167°E)
Time: 03:12:39
(UTC+00:00)

Cosmos 1844 Rocket - Pass Details

Date: 24 October 2021
Orbit: 826 x 843 km, 71.0° (Epoch: 29 November)

Event Time Altitude Azimuth Distance (km) Brightness Sun altitude
Rises 17:20:42 0° 345° (NNW) 3,375 5.9 -4.2°
Reaches altitude 10° 17:23:54 10° 3° (N) 2,437 5.0 -4.8°
Maximum altitude 17:27:47 19° 48° (NE) 1,883 4.0 -5.5°
Drops below altitude 10° 17:31:39 10° 92° (E) 2,429 4.5 -6.2°
Enters shadow 17:33:11 - 102° (ESE) 2,851 4.9 -6.5°
